When you browse on this site, cookies collect data to enhance your experience and personalize the content and advertising you see.
Visit our Privacy Policy to learn more. By continuing to use the site, you agree to this use of cookies and data.
  • In Lithuania
  • List of Countries
  • For 7 days
  • Water Temperature
  • Weather Map
  • Weather Widgets
  • user-avatar
    Login

    Hourly Weather Uige

    Today, 28 January, Tuesday

    Time Temperature Precipitation Wind Pressure Humidity
    00:00 +20°C° 0 mm 0 mps 691 mmHg 94%
    01:00 +20°C° 0 mm 0 mps 691 mmHg 95%
    02:00 +20°C° 0.3 mm 0 mps 690 mmHg 95%
    03:00 +20°C° 0.3 mm 0 mps 690 mmHg 94%
    04:00 +20°C° 0.3 mm 0 mps 690 mmHg 94%
    05:00 +20°C° 0.3 mm 0 mps 691 mmHg 94%
    06:00 +20°C° 0.3 mm 0 mps 691 mmHg 94%
    07:00 +21°C° 0 mm 0 mps 691 mmHg 94%
    08:00 +22°C° 0.1 mm 0 mps 692 mmHg 90%
    09:00 +23°C° 0.1 mm 0 mps 692 mmHg 87%
    10:00 +24°C° 0.1 mm 0 mps 692 mmHg 83%
    11:00 +26°C° 0.6 mm 1 mps 692 mmHg 83%
    12:00 +27°C° 0.6 mm 1 mps 691 mmHg 82%
    13:00 +27°C° 0.6 mm 1 mps 690 mmHg 82%
    14:00 +27°C° 0.4 mm 1 mps 690 mmHg 79%
    15:00 +27°C° 0.4 mm 1 mps 690 mmHg 77%
    16:00 +28°C° 0.4 mm 1 mps 689 mmHg 74%
    17:00 +26°C° 0.1 mm 1 mps 689 mmHg 80%
    18:00 +23°C° 0.1 mm 0 mps 689 mmHg 86%
    19:00 +21°C° 0.1 mm 0 mps 689 mmHg 92%
    20:00 +21°C° 0.1 mm 0 mps 690 mmHg 92%
    21:00 +21°C° 0.1 mm 0 mps 691 mmHg 93%
    22:00 +20°C° 0.1 mm 0 mps 691 mmHg 93%
    23:00 +20°C° 0.3 mm 0 mps 691 mmHg 94%

    Tomorrow, 29 January, Wednesday

    Time Temperature Precipitation Wind Pressure Humidity
    00:00 +20°C° 0.3 mm 0 mps 691 mmHg 94%
    01:00 +20°C° 0.3 mm 0 mps 691 mmHg 95%
    02:00 +20°C° 0.6 mm 0 mps 691 mmHg 95%
    03:00 +20°C° 0.6 mm 0 mps 690 mmHg 95%
    04:00 +20°C° 0.6 mm 0 mps 690 mmHg 95%
    05:00 +20°C° 0.2 mm 0 mps 691 mmHg 95%
    06:00 +20°C° 0.2 mm 0 mps 691 mmHg 95%
    07:00 +20°C° 0.2 mm 0 mps 691 mmHg 95%
    08:00 +21°C° 0.3 mm 0 mps 692 mmHg 91%
    09:00 +23°C° 0.3 mm 0 mps 692 mmHg 87%
    10:00 +24°C° 0.3 mm 0 mps 692 mmHg 83%
    11:00 +26°C° 0.7 mm 1 mps 692 mmHg 83%
    12:00 +27°C° 0.7 mm 1 mps 691 mmHg 83%
    13:00 +27°C° 0.7 mm 1 mps 691 mmHg 83%
    14:00 +26°C° 0.9 mm 1 mps 690 mmHg 85%
    15:00 +26°C° 0.9 mm 1 mps 690 mmHg 88%
    16:00 +26°C° 0.9 mm 1 mps 689 mmHg 90%
    17:00 +25°C° 0.5 mm 1 mps 690 mmHg 91%
    18:00 +24°C° 0.5 mm 1 mps 690 mmHg 93%
    19:00 +21°C° 0.5 mm 0 mps 690 mmHg 95%
    20:00 +21°C° 0.3 mm 0 mps 691 mmHg 95%
    21:00 +21°C° 0.3 mm 0 mps 691 mmHg 95%
    22:00 +20°C° 0.3 mm 0 mps 692 mmHg 95%
    23:00 +20°C° 0 mm 0 mps 692 mmHg 95%

    Day after tomorrow, 30 January, Thursday

    Time Temperature Precipitation Wind Pressure Humidity
    00:00 +20°C° 0 mm 0 mps 692 mmHg 96%
    01:00 +20°C° 0 mm 0 mps 692 mmHg 96%
    02:00 +20°C° 0 mm 0 mps 691 mmHg 96%
    03:00 +20°C° 0 mm 0 mps 691 mmHg 96%
    04:00 +20°C° 0 mm 0 mps 690 mmHg 96%
    05:00 +20°C° 0 mm 0 mps 691 mmHg 96%
    06:00 +20°C° 0 mm 0 mps 691 mmHg 96%
    07:00 +20°C° 0 mm 0 mps 692 mmHg 96%
    08:00 +24°C° 0 mm 1 mps 692 mmHg 89%
    09:00 +25°C° 0 mm 1 mps 693 mmHg 82%
    10:00 +27°C° 0 mm 1 mps 694 mmHg 75%
    11:00 +27°C° 0.7 mm 2 mps 693 mmHg 79%
    12:00 +27°C° 0.7 mm 2 mps 692 mmHg 82%
    13:00 +26°C° 0.7 mm 3 mps 692 mmHg 85%
    14:00 +25°C° 0.7 mm 2 mps 691 mmHg 89%
    15:00 +24°C° 0.7 mm 1 mps 690 mmHg 92%
    16:00 +23°C° 0.7 mm 1 mps 690 mmHg 96%
    17:00 +23°C° 0 mm 1 mps 690 mmHg 96%
    18:00 +23°C° 0 mm 1 mps 690 mmHg 96%
    19:00 +22°C° 0 mm 1 mps 691 mmHg 96%
    20:00 +22°C° 0 mm 1 mps 691 mmHg 96%
    21:00 +22°C° 0 mm 1 mps 692 mmHg 95%
    22:00 +22°C° 0 mm 1 mps 692 mmHg 95%
    23:00 +21°C° 0 mm 1 mps 692 mmHg 96%

    31 January, Friday

    Time Temperature Precipitation Wind Pressure Humidity
    00:00 +21°C° 0 mm 1 mps 692 mmHg 96%
    01:00 +19°C° 0 mm 0 mps 691 mmHg 97%
    02:00 +19°C° 0 mm 0 mps 691 mmHg 97%
    03:00 +19°C° 0 mm 0 mps 691 mmHg 97%
    04:00 +19°C° 0 mm 0 mps 691 mmHg 98%
    05:00 +19°C° 0 mm 0 mps 691 mmHg 97%
    06:00 +20°C° 0 mm 0 mps 692 mmHg 96%
    07:00 +20°C° 0 mm 0 mps 692 mmHg 95%
    08:00 +22°C° 0 mm 0 mps 693 mmHg 85%
    09:00 +26°C° 0 mm 1 mps 693 mmHg 75%
    10:00 +29°C° 0 mm 1 mps 694 mmHg 65%
    11:00 +29°C° 0.3 mm 1 mps 693 mmHg 65%
    12:00 +29°C° 0.3 mm 1 mps 692 mmHg 64%
    13:00 +30°C° 0.3 mm 1 mps 692 mmHg 64%
    14:00 +29°C° 0.8 mm 1 mps 691 mmHg 71%
    15:00 +28°C° 0.8 mm 1 mps 690 mmHg 78%
    16:00 +27°C° 0.8 mm 1 mps 690 mmHg 85%
    17:00 +26°C° 0.7 mm 1 mps 690 mmHg 89%
    18:00 +24°C° 0.7 mm 1 mps 690 mmHg 92%
    19:00 +21°C° 0.7 mm 0 mps 690 mmHg 95%
    20:00 +20°C° 0.1 mm 0 mps 690 mmHg 96%
    21:00 +20°C° 0.1 mm 0 mps 691 mmHg 96%
    22:00 +20°C° 0.1 mm 0 mps 691 mmHg 96%
    23:00 +20°C° 0 mm 0 mps 691 mmHg 96%

    1 February, Saturday

    Time Temperature Precipitation Wind Pressure Humidity
    00:00 +20°C° 0 mm 0 mps 691 mmHg 96%
    01:00 +22°C° 0 mm 1 mps 691 mmHg 97%
    02:00 +21°C° 0 mm 1 mps 690 mmHg 97%
    03:00 +21°C° 0 mm 1 mps 690 mmHg 98%
    04:00 +21°C° 0 mm 1 mps 690 mmHg 98%
    05:00 +21°C° 0 mm 1 mps 690 mmHg 98%
    06:00 +21°C° 0 mm 1 mps 691 mmHg 98%
    07:00 +22°C° 0 mm 1 mps 691 mmHg 98%
    08:00 +23°C° 0 mm 1 mps 692 mmHg 91%
    09:00 +25°C° 0 mm 1 mps 692 mmHg 84%
    10:00 +27°C° 0 mm 1 mps 693 mmHg 77%
    11:00 +28°C° 0.1 mm 1 mps 692 mmHg 71%
    12:00 +29°C° 0.1 mm 1 mps 692 mmHg 65%
    13:00 +30°C° 0.1 mm 2 mps 691 mmHg 58%
    14:00 +29°C° 0.4 mm 2 mps 691 mmHg 65%
    15:00 +28°C° 0.4 mm 2 mps 690 mmHg 72%
    16:00 +27°C° 0.4 mm 2 mps 689 mmHg 79%
    17:00 +26°C° 0.5 mm 2 mps 689 mmHg 84%
    18:00 +24°C° 0.5 mm 1 mps 689 mmHg 90%
    19:00 +23°C° 0.5 mm 1 mps 690 mmHg 96%
    20:00 +20°C° 0.2 mm 0 mps 690 mmHg 96%
    21:00 +20°C° 0.2 mm 0 mps 691 mmHg 96%
    22:00 +20°C° 0.2 mm 0 mps 691 mmHg 96%
    23:00 +20°C° 0.1 mm 0 mps 691 mmHg 97%

    2 February, Sunday

    Time Temperature Precipitation Wind Pressure Humidity
    00:00 +19°C° 0.1 mm 0 mps 691 mmHg 97%
    01:00 +19°C° 0.1 mm 0 mps 691 mmHg 97%
    02:00 +19°C° 0 mm 0 mps 691 mmHg 98%
    03:00 +21°C° 0 mm 1 mps 691 mmHg 98%
    04:00 +21°C° 0 mm 1 mps 690 mmHg 99%
    05:00 +22°C° 0 mm 1 mps 691 mmHg 98%
    06:00 +22°C° 0 mm 1 mps 691 mmHg 98%
    07:00 +20°C° 0 mm 0 mps 691 mmHg 98%
    08:00 +21°C° 0 mm 0 mps 692 mmHg 95%
    09:00 +22°C° 0 mm 0 mps 692 mmHg 91%
    10:00 +23°C° 0 mm 0 mps 693 mmHg 88%
    11:00 +26°C° 0.1 mm 1 mps 692 mmHg 80%
    12:00 +27°C° 0.1 mm 1 mps 692 mmHg 72%
    13:00 +29°C° 0.1 mm 2 mps 691 mmHg 64%
    14:00 +29°C° 0.2 mm 2 mps 691 mmHg 66%
    15:00 +28°C° 0.2 mm 2 mps 690 mmHg 68%
    16:00 +28°C° 0.2 mm 2 mps 690 mmHg 69%
    17:00 +26°C° 0.8 mm 2 mps 690 mmHg 78%
    18:00 +24°C° 0.8 mm 1 mps 690 mmHg 87%
    19:00 +23°C° 0.8 mm 1 mps 690 mmHg 97%
    20:00 +22°C° 1.2 mm 1 mps 691 mmHg 97%
    21:00 +22°C° 1.2 mm 1 mps 691 mmHg 97%
    22:00 +20°C° 1.2 mm 0 mps 691 mmHg 98%
    23:00 +19°C° 0 mm 0 mps 691 mmHg 98%
    Show more